"2016-03-15 00:00:00",1458651,17.51,314,6.47,1.183,13.22,102.5745,5.871,7.11,44.75,0,110.2,13.18,6.64,276.0
"2016-03-15 00:00:30",1458652,15.68,309.7,7.981,1.413,12.54,102.5745,5.871,7.144,47.15,0,110.2,13.18,6.64,271.7
"2016-03-15 00:01:00",1458653,16.19,314,6.807,1.611,12.91,102.5734,5.868,7.12,46.93,0,110.2,13.18,6.64,276.0
"2016-03-15 00:01:30",1458654,15.52,314,8.69,1.317,12.38,102.5658,5.848,7.082,47.05,0,110.2,13.18,6.62,276.0
"2016-03-15 00:02:00",1458655,13.99,315.7,6.959,1.411,12.07,102.5567,5.825,7.089,48.18,0,110.2,13.18,6.60,277.7
"2016-03-15 00:02:30",1458656,14.21,318.5,7.599,1.487,12.58,102.546,5.798,7.091,48.81,0,110.2,13.18,6.57,280.5
"2016-03-15 00:03:00",1458657,15.19,318.8,6.927,1.62,12.51,102.5406,5.784,7.076,48.4,0,110.2,13.18,6.56,280.8
"2016-03-15 00:03:30",1458658,14.56,318.4,7.842,1.478,12.53,102.5322,5.762,7.035,48.2,0,110.2,13.18,6.53,280.4
"2016-03-15 00:04:00",1458659,15.2,314.5,6.797,1.372,12.42,102.5141,5.716,7.061,48.81,0,110.2,13.18,6.49,276.5
"2016-03-15 00:04:30",1458660,16.5,314.8,6.898,1.308,12.39,102.5068,5.697,7.019,48.59,0,110.2,13.18,6.47,276.8
"2016-03-15 00:05:00",1458661,15.99,310.9,6.724,1.452,12.64,102.4991,5.678,6.96,48.79,0,110.2,13.18,6.45,272.9
"2016-03-15 00:05:30",1458662,15.02,316.3,7.432,1.783,12.45,102.4802,5.63,6.998,49.19,0,110.2,13.19,6.40,278.3
"2016-03-15 00:06:00",1458663,17.11,311.8,6.969,1.311,12.62,102.4729,5.611,6.942,48.23,0,110.2,13.19,6.38,273.8
"2016-03-15 00:06:30",1458664,18.16,310.8,6.731,1.28,12.79,102.4712,5.607,6.903,47.93,0,110.2,13.19,6.38,272.8
"2016-03-15 00:07:00",1458665,17.41,312.8,6.516,1.313,12.72,102.4585,5.574,6.917,48.04,0,110.2,13.19,6.35,274.8
"2016-03-15 00:07:30",1458666,17.04,312.1,6.721,1.222,12.94,102.4421,5.532,6.889,47.77,0,110.2,13.19,6.30,274.1
"2016-03-15 00:08:00",1458667,17.51,314.8,6.521,1.558,12.84,102.4428,5.534,6.874,47.91,0,110.2,13.19,6.31,276.8
"2016-03-15 00:08:30",1458668,17.56,313.7,6.46,1.19,12.73,102.4442,5.538,6.858,47.25,0,110.2,13.19,6.31,275.7
"2016-03-15 00:09:00",1458669,16.06,312.5,6.381,1.302,12.65,102.4486,5.549,6.839,46.99,0,110.2,13.19,6.32,274.5
"2016-03-15 00:09:30",1458670,16.23,311.4,7.043,1.325,12.99,102.45,5.552,6.824,47.41,0,110.2,13.18,6.32,273.4
"2016-03-15 00:10:00",1458671,15.53,313.2,6.624,1.294,13.07,102.4543,5.564,6.85,47.88,0,110.2,13.18,6.33,275.2
"2016-03-15 00:10:30",1458672,16,314.7,7.292,1.303,12.68,102.4578,5.572,6.849,48.04,0,110.2,13.19,6.34,276.7
"2016-03-15 00:11:00",1458673,15.94,312.2,6.377,1.215,12.41,102.4584,5.574,6.834,47.69,0,110.1,13.19,6.35,274.2
"2016-03-15 00:11:30",1458674,15.85,312.8,7.112,1.355,12.64,102.4622,5.583,6.818,48.17,0,110.1,13.19,6.36,274.8
"2016-03-15 00:12:00",1458675,15.8,312.9,6.893,1.383,12.7,102.4648,5.59,6.806,47.55,0,110.1,13.19,6.36,274.9
"2016-03-15 00:12:30",1458676,15.76,313.5,6.377,1.27,12.83,102.4662,5.594,6.835,47.4,0,110.1,13.19,6.37,275.5
"2016-03-15 00:13:00",1458677,15.63,312.5,6.243,1.23,12.93,102.4665,5.595,6.851,47.59,0,110.1,13.19,6.37,274.5
"2016-03-15 00:13:30",1458678,15.55,311.5,6.468,1.24,12.19,102.4665,5.595,6.811,47.49,0,110.1,13.19,6.37,273.5
"2016-03-15 00:14:00",1458679,14.78,312.2,6.334,1.287,12.51,102.4677,5.598,6.793,47.32,0,110.1,13.19,6.37,274.2
"2016-03-15 00:14:30",1458680,14.31,313.1,6.619,1.261,12.95,102.4703,5.604,6.807,46.9,0,110.1,13.2,6.38,275.1
"2016-03-15 00:15:00",1458681,13.89,313.7,6.216,1.194,12.76,102.4723,5.609,6.825,46.53,0,110.1,13.2,6.38,275.7
"2016-03-15 00:15:30",1458682,13.83,312.2,6.892,1.259,12.65,102.4734,5.612,6.821,46.95,0,110.1,13.2,6.38,274.2
"2016-03-15 00:16:00",1458683,13.32,311.4,6.246,1.3,12.11,102.4732,5.612,6.846,47.4,0,110.1,13.2,6.38,273.4
"2016-03-15 00:16:30",1458684,13.73,309.7,6.421,1.206,12.14,102.4737,5.613,6.809,48.06,0,110.1,13.2,6.38,271.7
"2016-03-15 00:17:00",1458685,13.73,309.1,6.57,1.252,12.36,102.4737,5.613,6.842,49.1,0,110.1,13.2,6.38,271.1
"2016-03-15 00:17:30",1458686,13.32,309.7,6.514,1.349,12.08,102.4706,5.605,6.851,49.79,0,110.1,13.2,6.38,271.7
"2016-03-15 00:18:00",1458687,13.97,310.4,6.263,1.166,11.91,102.4616,5.582,6.82,50.12,0,110.1,13.2,6.35,272.4
"2016-03-15 00:18:30",1458688,13.46,311.1,6.249,1.306,12.25,102.45,5.552,6.805,50.33,0,110.1,13.2,6.32,273.1
"2016-03-15 00:19:00",1458689,12.8,312.6,6.366,1.314,11.91,102.4398,5.526,6.823,49.7,0,110.1,13.2,6.30,274.6
"2016-03-15 00:19:30",1458690,12.83,311.3,6.676,1.2,12.05,102.4396,5.526,6.792,50.2,0,110.1,13.2,6.30,273.3
"2016-03-15 00:20:00",1458691,12.32,308.6,6.303,1.277,12.09,102.4271,5.494,6.803,50.65,0,110.1,13.2,6.27,270.6
"2016-03-15 00:20:30",1458692,12.52,305.2,7.028,1.254,11.45,102.4119,5.455,6.757,50.6,0,110.1,13.2,6.23,267.2
"2016-03-15 00:21:00",1458693,12.62,304.1,6.423,1.26,11.73,102.406,5.44,6.748,50.14,0,110.1,13.2,6.21,266.1
"2016-03-15 00:21:30",1458694,13.07,304.7,6.669,1.249,12.13,102.3964,5.415,6.713,49.6,0,110.1,13.2,6.19,266.7
"2016-03-15 00:22:00",1458695,13.18,303.8,6.62,1.394,11.94,102.3828,5.381,6.729,49.14,0,110.1,13.2,6.15,265.8
"2016-03-15 00:22:30",1458696,13.44,302.5,6.397,1.24,12.15,102.3721,5.353,6.704,49.31,0,110.1,13.2,6.12,264.5
"2016-03-15 00:23:00",1458697,13.67,301.5,6.238,1.186,11.8,102.3724,5.354,6.654,48.77,0,110.1,13.21,6.12,263.5
"2016-03-15 00:23:30",1458698,13.77,301.1,6.302,1.275,11.87,102.3712,5.351,6.636,48.96,0,110.1,13.2,6.12,263.1
"2016-03-15 00:24:00",1458699,13.34,300.6,6.701,1.265,12.09,102.369,5.346,6.632,49.4,0,110.1,13.21,6.12,262.6
"2016-03-15 00:24:30",1458700,12.73,301.3,6.716,1.276,11.8,102.3614,5.326,6.65,49.9,0,110.1,13.21,6.10,263.3
"2016-03-15 00:25:00",1458701,12.96,301.7,6.125,1.318,11.97,102.36,5.323,6.637,50.43,0,110.1,13.21,6.09,263.7
"2016-03-15 00:25:30",1458702,13.45,298.9,6.704,1.25,11.65,102.3552,5.31,6.598,50.46,0,110.1,13.21,6.08,260.9
"2016-03-15 00:26:00",1458703,14.08,290.9,6.597,1.31,11.85,102.3451,5.284,6.615,50.19,0,110.1,13.2,6.06,252.9
"2016-03-15 00:26:30",1458704,13.65,290.4,7.351,1.423,11.47,102.3471,5.29,6.543,50.4,0,110.1,13.2,6.06,252.4
"2016-03-15 00:27:00",1458705,14.39,290.4,6.795,1.483,11.94,102.3503,5.298,6.568,50.03,0,110.1,13.2,6.07,252.4
"2016-03-15 00:27:30",1458706,14.83,290.5,6.76,1.424,12.52,102.3523,5.303,6.586,49.41,0,110.1,13.2,6.07,252.5
"2016-03-15 00:28:00",1458707,14.52,292.3,6.37,1.34,12.73,102.3546,5.309,6.586,48.81,0,110,13.2,6.08,254.3
"2016-03-15 00:28:30",1458708,14.15,293,6.37,1.286,12.35,102.3609,5.325,6.609,49.12,0,110.1,13.2,6.10,255.0
"2016-03-15 00:29:00",1458709,15.45,294.5,6.649,1.487,12.45,102.3771,5.366,6.601,49.04,0,110.1,13.2,6.14,256.5
"2016-03-15 00:29:30",1458710,15.14,292.6,7.11,1.337,12.61,102.3921,5.404,6.586,48.57,0,110.1,13.2,6.18,254.6
"2016-03-15 00:30:00",1458711,15.33,294.2,6.699,1.346,12.81,102.3969,5.417,6.59,47.65,0,110.1,13.2,6.19,256.2
"2016-03-15 00:30:30",1458712,15.65,294.1,6.931,1.39,12.55,102.4066,5.442,6.592,47.7,0,110.1,13.2,6.21,256.1
"2016-03-15 00:31:00",1458713,16.05,293.8,6.435,1.24,12.6,102.428,5.496,6.663,47.94,0,110.1,13.21,6.27,255.8
"2016-03-15 00:31:30",1458714,15.58,293.5,6.861,1.348,12.93,102.4323,5.507,6.658,47.99,0,110.1,13.21,6.28,255.5
"2016-03-15 00:32:00",1458715,16.11,295.1,7.028,1.412,12.29,102.4414,5.53,6.694,48.11,0,110.1,13.21,6.30,257.1
"2016-03-15 00:32:30",1458716,16.81,293.2,6.8,1.278,12.79,102.4575,5.572,6.704,47.85,0,110.1,13.21,6.34,255.2
"2016-03-15 00:33:00",1458717,16.11,294.3,6.681,1.267,12.79,102.4702,5.604,6.736,48.21,0,110.1,13.21,6.38,256.3
"2016-03-15 00:33:30",1458718,15.95,295.2,6.718,1.275,12.54,102.4734,5.612,6.754,48.11,0,110.1,13.21,6.38,257.2
"2016-03-15 00:34:00",1458719,15.65,295.4,6.777,1.466,12.75,102.4822,5.635,6.755,47.59,0,110.1,13.21,6.41,257.4
"2016-03-15 00:34:30",1458720,15.61,296.3,7.003,1.348,12.63,102.4949,5.667,6.788,47.86,0,110.1,13.21,6.44,258.3
"2016-03-15 00:35:00",1458721,16.63,296.9,6.258,1.283,12.71,102.5034,5.689,6.818,47.9,0,110.1,13.21,6.46,258.9
"2016-03-15 00:35:30",1458722,16.18,296,6.775,1.349,12.8,102.5085,5.702,6.824,47.66,0,110.1,13.21,6.47,258.0
"2016-03-15 00:36:00",1458723,16.26,299.2,6.877,1.309,12.49,102.5085,5.702,6.858,47.17,0,110.1,13.21,6.47,261.2
"2016-03-15 00:36:30",1458724,16.25,298.1,7.216,1.23,12.74,102.5088,5.702,6.842,46,0,110.1,13.21,6.47,260.1
"2016-03-15 00:37:00",1458725,16.71,300.4,6.19,1.397,12.86,102.5189,5.728,6.873,46.55,0,110,13.21,6.50,262.4
"2016-03-15 00:37:30",1458726,15.33,301.1,7.001,1.376,12.73,102.537,5.775,6.888,46.75,0,110.1,13.21,6.55,263.1
"2016-03-15 00:38:00",1458727,16,300.9,6.484,1.414,12.91,102.5424,5.788,6.924,46.62,0,110,13.21,6.56,262.9
"2016-03-15 00:38:30",1458728,15.88,301.3,6.363,1.228,12.57,102.5424,5.788,6.952,46.55,0,110,13.22,6.56,263.3
"2016-03-15 00:39:00",1458729,15.06,299.3,6.136,1.371,12.54,102.5424,5.788,6.919,46.66,0,110.1,13.21,6.56,261.3
"2016-03-15 00:39:30",1458730,15.95,300.2,7.107,1.306,12.78,102.5466,5.799,6.954,46.07,0,110,13.22,6.57,262.2
"2016-03-15 00:40:00",1458731,15.72,302.3,7.184,1.339,12.78,102.5554,5.822,6.964,46.03,0,110,13.22,6.59,264.3
"2016-03-15 00:40:30",1458732,15.52,304.6,7.316,1.306,12.61,102.5568,5.825,6.976,46.2,0,110.1,13.22,6.60,266.6
"2016-03-15 00:41:00",1458733,15.51,305,6.443,1.274,12.79,102.5638,5.843,7.022,46.17,0,110.1,13.22,6.62,267.0
"2016-03-15 00:41:30",1458734,15.94,304.3,6.573,1.421,12.79,102.5706,5.861,7.004,44.44,0,110.1,13.22,6.63,266.3
"2016-03-15 00:42:00",1458735,15.11,301.4,6.852,1.25,12.94,102.5763,5.875,7.005,44.67,0,110.1,13.22,6.65,263.4
"2016-03-15 00:42:30",1458736,15.65,303.7,6.934,1.293,13.02,102.5763,5.875,7.036,44.57,0,110.1,13.22,6.65,265.7
"2016-03-15 00:43:00",1458737,15.93,306.7,7.268,1.478,12.45,102.5763,5.875,7.077,44.55,0,110,13.22,6.65,268.7
"2016-03-15 00:43:30",1458738,15.82,307.4,6.628,1.504,12.97,102.5763,5.875,7.041,45.43,0,110,13.22,6.65,269.4
"2016-03-15 00:44:00",1458739,15.53,308.1,6.507,1.435,12.76,102.5768,5.876,7.092,45.49,0,110,13.22,6.65,270.1
"2016-03-15 00:44:30",1458740,16.23,307.2,7.132,1.279,12.91,102.5816,5.889,7.087,44.42,0,110,13.22,6.66,269.2
"2016-03-15 00:45:00",1458741,15.71,305.3,7.071,1.255,12.83,102.5924,5.916,7.108,45.18,0,110,13.22,6.69,267.3
"2016-03-15 00:45:30",1458742,16.51,309.2,6.174,1.267,12.86,102.5927,5.917,7.113,44.79,0,110,13.22,6.69,271.2
"2016-03-15 00:46:00",1458743,16.23,307,6.708,1.299,12.88,102.5972,5.928,7.099,43.64,0,110.1,13.22,6.70,269.0
"2016-03-15 00:46:30",1458744,15.87,308.2,6.386,1.26,13.13,102.6034,5.944,7.134,43.82,0,110,13.22,6.72,270.2
"2016-03-15 00:47:00",1458745,16.17,310.8,6.096,1.174,13.23,102.6105,5.962,7.147,43.43,0,110,13.22,6.74,272.8
"2016-03-15 00:47:30",1458746,15.84,308.9,6.589,1.28,13.1,102.611,5.964,7.142,42.85,0,110,13.22,6.74,270.9
"2016-03-15 00:48:00",1458747,15.74,311.9,6.785,1.319,13.05,102.6105,5.962,7.177,42.53,0,110,13.22,6.74,273.9
"2016-03-15 00:48:30",1458748,15.99,308.9,8.31,1.332,13.21,102.6187,5.983,7.172,41.15,0,110,13.22,6.76,270.9
"2016-03-15 00:49:00",1458749,15.93,308,6.258,1.265,13.07,102.6275,6.006,7.165,43.57,0,110,13.22,6.78,270.0
"2016-03-15 00:49:30",1458750,16.21,307.3,6.441,1.36,13.17,102.6311,6.015,7.199,43.29,0,110,13.23,6.79,269.3
"2016-03-15 00:50:00",1458751,16.22,306.1,6.667,1.297,13.23,102.6445,6.049,7.238,43.1,0,110,13.23,6.82,268.1
"2016-03-15 00:50:30",1458752,16.31,304.8,6.354,1.214,13.05,102.6519,6.068,7.233,43.07,0,110,13.23,6.84,266.8
"2016-03-15 00:51:00",1458753,16.6,303.9,6.509,1.21,12.88,102.6531,6.071,7.239,43.53,0,110,13.23,6.84,265.9
"2016-03-15 00:51:30",1458754,16.04,302.9,6.732,1.329,12.98,102.6545,6.075,7.253,43.51,0,110,13.23,6.85,264.9
"2016-03-15 00:52:00",1458755,15.83,305.7,6.151,1.307,13.2,102.6545,6.075,7.271,43.39,0,110,13.22,6.85,267.7
"2016-03-15 00:52:30",1458756,15.58,304.5,6.602,1.281,12.87,102.6577,6.083,7.29,43.91,0,110,13.23,6.86,266.5
"2016-03-15 00:53:00",1458757,15.45,304,6.189,1.33,13,102.6643,6.1,7.306,43.41,0,110,13.23,6.87,266.0
"2016-03-15 00:53:30",1458758,15.63,303.2,6.605,1.212,12.9,102.6741,6.125,7.291,43.86,0,110,13.23,6.90,265.2
"2016-03-15 00:54:00",1458759,14.95,299.4,6.547,1.448,12.8,102.6787,6.137,7.301,44.65,0,110,13.23,6.91,261.4
"2016-03-15 00:54:30",1458760,14.61,298.9,6.451,1.287,12.65,102.6805,6.141,7.288,44.49,0,110,13.23,6.91,260.9
"2016-03-15 00:55:00",1458761,14.25,304,6.191,1.338,12.6,102.677,6.132,7.311,44.63,0,110,13.23,6.91,266.0
"2016-03-15 00:55:30",1458762,14.17,300.3,6.644,1.334,12.94,102.6737,6.124,7.317,44.87,0,110,13.23,6.90,262.3
"2016-03-15 00:56:00",1458763,14.36,301.1,6.649,1.343,12.34,102.6678,6.109,7.32,44.74,0,110,13.23,6.88,263.1
"2016-03-15 00:56:30",1458764,14.77,299.1,6.415,1.265,12.75,102.6675,6.108,7.32,44.43,0,110,13.23,6.88,261.1
"2016-03-15 00:57:00",1458765,14.27,300.7,6.773,1.315,12.71,102.6678,6.109,7.328,44.56,0,110,13.23,6.88,262.7
"2016-03-15 00:57:30",1458766,14.08,300.4,6.663,1.315,12.48,102.6696,6.113,7.323,44.6,0,110,13.23,6.89,262.4
"2016-03-15 00:58:00",1458767,14.82,300.1,6.401,1.226,12.55,102.669,6.112,7.308,44.2,0,110,13.23,6.89,262.1
"2016-03-15 00:58:30",1458768,14.62,298.8,6.96,1.27,12.5,102.6696,6.113,7.3,43.96,0,110,13.23,6.89,260.8
"2016-03-15 00:59:00",1458769,14.05,300.9,6.385,1.411,12.78,102.6713,6.118,7.299,44.63,0,110,13.22,6.89,262.9
"2016-03-15 00:59:30",1458770,13.91,305.2,6.251,1.257,12.38,102.6668,6.106,7.32,44.74,0,110,13.22,6.88,267.2
"2016-03-15 01:00:00",1458771,14.12,301.8,6.675,1.274,12.64,102.6617,6.093,7.291,44.9,0,110,13.22,6.87,263.8
"2016-03-15 01:00:30",1458772,13.79,300.9,6.51,1.269,12.79,102.6587,6.086,7.299,44.45,0,110,13.22,6.86,262.9
"2016-03-15 01:01:00",1458773,13.8,300.4,6.055,1.316,12.53,102.6567,6.08,7.303,44.59,0,110,13.22,6.85,262.4
"2016-03-15 01:01:30",1458774,13.29,300.1,6.813,1.278,12.21,102.6542,6.074,7.27,44.8,0,110,13.22,6.85,262.1
"2016-03-15 01:02:00",1458775,12.8,298.9,6.919,1.299,12.53,102.6542,6.074,7.265,44.84,0,110,13.22,6.85,260.9
"2016-03-15 01:02:30",1458776,11.58,298.2,5.987,1.544,11.26,102.6568,6.081,7.246,44.83,0,110.1,13.22,6.85,260.2
"2016-03-15 01:03:00",1458777,11.36,295.7,11.16,1.376,10.37,102.6551,6.076,7.131,45.1,0,110,13.22,6.85,257.7
"2016-03-15 01:03:30",1458778,10.9,292.1,6.359,1.255,10.11,102.6464,6.054,7.129,44.31,0,110,13.22,6.83,254.1
"2016-03-15 01:04:00",1458779,12.02,301.4,6.987,1.317,12.32,102.6444,6.049,7.224,44.8,0,110,13.23,6.82,263.4
"2016-03-15 01:04:30",1458780,11.22,303.8,8.06,1.481,12.65,102.6447,6.05,7.276,44.61,0,110,13.23,6.82,265.8
"2016-03-15 01:05:00",1458781,11.44,304.3,6.972,1.429,12.7,102.645,6.05,7.237,43.17,0,110,13.23,6.82,266.3
"2016-03-15 01:05:30",1458782,11.38,298.9,9.13,1.54,11.53,102.6447,6.05,7.171,42.99,0,110,13.23,6.82,260.9
"2016-03-15 01:06:00",1458783,11.14,298.3,7.695,1.521,12.14,102.645,6.05,7.234,44.41,0,110,13.23,6.82,260.3
"2016-03-15 01:06:30",1458784,12.12,301.2,8.45,1.482,11.55,102.645,6.05,7.184,43.02,0,110,13.23,6.82,263.2
"2016-03-15 01:07:00",1458785,11.33,300.7,7.132,1.273,10.56,102.645,6.05,7.128,43.35,0,110,13.24,6.82,262.7
"2016-03-15 01:07:30",1458786,12.3,305.2,8.37,1.36,12.07,102.6447,6.05,7.141,43.73,0,110,13.24,6.82,267.2
"2016-03-15 01:08:00",1458787,11.39,306.8,8.15,1.546,12.4,102.6447,6.05,7.203,43.29,0,110,13.24,6.82,268.8
"2016-03-15 01:08:30",1458788,12.08,311.1,6.926,1.332,12.91,102.6424,6.044,7.239,42.63,0,110,13.24,6.82,273.1
"2016-03-15 01:09:00",1458789,11.99,306.2,7.784,1.325,12.68,102.6421,6.043,7.223,42.85,0,110.1,13.24,6.82,268.2
"2016-03-15 01:09:30",1458790,13.35,310.7,7.348,1.354,12.65,102.643,6.045,7.217,42.26,0,110,13.24,6.82,272.7
"2016-03-15 01:10:00",1458791,13.2,315.8,6.581,1.29,12.81,102.6441,6.048,7.256,42.1,0,110,13.24,6.82,277.8
"2016-03-15 01:10:30",1458792,12.04,314.5,7.078,1.293,12.79,102.6435,6.047,7.252,42.6,0,110,13.24,6.82,276.5
"2016-03-15 01:11:00",1458793,12.09,312.8,7.293,1.359,12.72,102.6444,6.049,7.223,43.4,0,110,13.24,6.82,274.8
"2016-03-15 01:11:30",1458794,12.85,313.1,6.587,1.365,12.63,102.6433,6.046,7.281,44.19,0,110.1,13.24,6.82,275.1
"2016-03-15 01:12:00",1458795,11.83,307.9,6.871,1.291,12.64,102.639,6.035,7.266,44.97,0,110,13.24,6.81,269.9
"2016-03-15 01:12:30",1458796,11.08,306.6,6.81,1.329,11.65,102.6303,6.013,7.217,45.3,0,110.1,13.24,6.79,268.6
"2016-03-15 01:13:00",1458797,11.43,308.8,8.49,1.525,11.56,102.6277,6.006,7.208,43.79,0,110,13.24,6.78,270.8
"2016-03-15 01:13:30",1458798,10.83,306.6,6.355,1.238,9.88,102.6178,5.981,7.078,43.23,0,110.1,13.24,6.75,268.6
"2016-03-15 01:14:00",1458799,11.8,311.5,8.45,1.602,11.16,102.6119,5.966,7.151,44.08,0,110,13.24,6.74,273.5
"2016-03-15 01:14:30",1458800,13.08,311.6,8.42,1.713,11.42,102.6111,5.964,7.153,43.65,0,110,13.24,6.74,273.6
"2016-03-15 01:15:00",1458801,14,314.7,6.921,1.371,12.79,102.6111,5.964,7.206,42.66,0,110,13.24,6.74,276.7
"2016-03-15 01:15:30",1458802,14.3,316.5,7.022,1.375,13.39,102.6111,5.964,7.222,42.74,0,110,13.24,6.74,278.5
"2016-03-15 01:16:00",1458803,14.59,318.4,7.325,1.475,13.48,102.6111,5.964,7.202,42.27,0,110,13.23,6.74,280.4
"2016-03-15 01:16:30",1458804,14.88,317.1,7.021,1.387,13.18,102.6111,5.964,7.204,42.45,0,110,13.23,6.74,279.1
"2016-03-15 01:17:00",1458805,14.79,320.8,5.883,1.461,13.38,102.6111,5.964,7.215,42.25,0,110,13.23,6.74,282.8
"2016-03-15 01:17:30",1458806,15.14,318.9,6.25,1.26,13.35,102.6111,5.964,7.225,41.4,0,110,13.23,6.74,280.9
"2016-03-15 01:18:00",1458807,14.89,318,6.603,1.28,12.84,102.6111,5.964,7.185,42.52,0,110,13.23,6.74,280.0
"2016-03-15 01:18:30",1458808,16.02,320.1,6.765,1.204,13.18,102.6111,5.964,7.193,41.07,0,110,13.23,6.74,282.1
"2016-03-15 01:19:00",1458809,15.92,319.9,6.819,1.262,13.41,102.6111,5.964,7.193,39.7,0,110,13.23,6.74,281.9
"2016-03-15 01:19:30",1458810,15.81,319.1,6.338,1.347,13.62,102.6111,5.964,7.202,39.9,0,110,13.23,6.74,281.1
"2016-03-15 01:20:00",1458811,16.06,317.8,6.161,1.36,13.3,102.6111,5.964,7.215,40.1,0,110,13.23,6.74,279.8
"2016-03-15 01:20:30",1458812,16.22,319,6.551,1.299,13.32,102.6113,5.965,7.229,40.59,0,110,13.23,6.74,281.0
"2016-03-15 01:21:00",1458813,16.32,318.8,6.18,1.316,13.33,102.6175,5.98,7.227,40.54,0,110,13.23,6.75,280.8
"2016-03-15 01:21:30",1458814,15.92,320.1,6.534,1.222,13.39,102.6246,5.998,7.224,40.07,0,110,13.23,6.77,282.1
"2016-03-15 01:22:00",1458815,15.6,316.9,6.837,1.343,12.91,102.6277,6.006,7.23,40.41,0,110,13.24,6.78,278.9
"2016-03-15 01:22:30",1458816,14.87,320.4,6.416,1.337,13.55,102.6311,6.015,7.222,39.1,0,110,13.24,6.79,282.4
"2016-03-15 01:23:00",1458817,15.14,316.9,7.014,1.305,13.31,102.6435,6.047,7.239,40.37,0,110,13.24,6.82,278.9
"2016-03-15 01:23:30",1458818,15.1,319.1,6.833,1.28,13.23,102.6447,6.05,7.228,39.91,0,110,13.24,6.82,281.1
"2016-03-15 01:24:00",1458819,15.01,319.6,6.648,1.343,13.39,102.645,6.05,7.272,38.97,0,110,13.24,6.82,281.6
"2016-03-15 01:24:30",1458820,15.22,320.7,6.002,1.304,13,102.645,6.05,7.264,39.04,0,110,13.24,6.82,282.7
"2016-03-15 01:25:00",1458821,14.66,318.7,6.583,1.269,13.22,102.645,6.05,7.246,39.04,0,110,13.24,6.82,280.7
"2016-03-15 01:25:30",1458822,14.62,319.4,6.632,1.299,13.46,102.645,6.05,7.29,39.48,0,110,13.24,6.82,281.4
"2016-03-15 01:26:00",1458823,13.96,319.4,6.77,1.278,13.24,102.6452,6.051,7.299,39.08,0,110,13.24,6.82,281.4
"2016-03-15 01:26:30",1458824,13.86,318.7,6.228,1.189,13.1,102.6458,6.053,7.27,39.01,0,110,13.24,6.83,280.7
"2016-03-15 01:27:00",1458825,13.69,319.2,6.47,1.261,13.22,102.65,6.063,7.282,39.36,0,110,13.23,6.84,281.2
"2016-03-15 01:27:30",1458826,13.3,317.8,6.436,1.383,13.11,102.6546,6.075,7.318,39.47,0,110,13.24,6.85,279.8
"2016-03-15 01:28:00",1458827,12.86,317.5,6.621,1.192,13.24,102.6537,6.073,7.28,39.23,0,110,13.24,6.85,279.5
"2016-03-15 01:28:30",1458828,13.04,316.9,6.628,1.193,12.78,102.6537,6.073,7.317,39.38,0,110,13.24,6.85,278.9
"2016-03-15 01:29:00",1458829,12.82,314.8,6.666,1.289,12.67,102.6537,6.073,7.306,39.55,0,110,13.24,6.85,276.8
"2016-03-15 01:29:30",1458830,12.53,311.7,6.651,1.337,12.87,102.6537,6.073,7.308,40.39,0,110,13.24,6.85,273.7
"2016-03-15 01:30:00",1458831,12.23,313.2,6.708,1.292,13.06,102.6461,6.053,7.318,40.71,0,110,13.24,6.83,275.2
"2016-03-15 01:30:30",1458832,12.58,312.2,6.155,1.275,12.65,102.645,6.05,7.339,40.46,0,110,13.24,6.82,274.2
"2016-03-15 01:31:00",1458833,12.36,311.2,6.789,1.231,12.5,102.645,6.05,7.309,40.73,0,110,13.24,6.82,273.2
"2016-03-15 01:31:30",1458834,12.26,311.4,6.275,1.19,12.49,102.645,6.05,7.287,40.53,0,110,13.24,6.82,273.4
"2016-03-15 01:32:00",1458835,12.12,311.4,6.864,1.258,12.34,102.6416,6.042,7.284,40.12,0,110,13.24,6.82,273.4
"2016-03-15 01:32:30",1458836,12.4,310,6.761,1.246,12.66,102.6325,6.019,7.292,40.04,0,110,13.23,6.79,272.0
"2016-03-15 01:33:00",1458837,12.77,311.1,6.579,1.18,12.84,102.6274,6.006,7.293,39.97,0,110,13.23,6.78,273.1
"2016-03-15 01:33:30",1458838,12.7,311.7,6.686,1.266,12.03,102.6229,5.994,7.295,40.17,0,110,13.23,6.77,273.7
"2016-03-15 01:34:00",1458839,12.82,310.8,6.738,1.235,12.34,102.613,5.969,7.269,40.16,0,110,13.23,6.74,272.8
"2016-03-15 01:34:30",1458840,12.56,311.6,6.752,1.289,12.66,102.6111,5.964,7.279,40.34,0,110,13.23,6.74,273.6
"2016-03-15 01:35:00",1458841,12.55,311.3,6.691,1.299,12.7,102.6113,5.965,7.262,40.84,0,110,13.23,6.74,273.3
"2016-03-15 01:35:30",1458842,12.82,311.4,6.639,1.281,12.39,102.6119,5.966,7.268,41.31,0,110.1,13.23,6.74,273.4
"2016-03-15 01:36:00",1458843,13.06,313.1,6.68,1.246,12.52,102.6113,5.965,7.243,40.99,0,110,13.23,6.74,275.1
"2016-03-15 01:36:30",1458844,12.71,315.6,5.989,1.231,12.54,102.6088,5.958,7.24,40.56,0,110,13.23,6.73,277.6
"2016-03-15 01:37:00",1458845,13.34,314.9,6.773,1.205,12.36,102.6023,5.942,7.218,40.99,0,110,13.23,6.71,276.9
"2016-03-15 01:37:30",1458846,13.1,315.9,6.941,1.262,12.57,102.5944,5.921,7.203,41.49,0,110,13.24,6.69,277.9
"2016-03-15 01:38:00",1458847,12.98,318,6.526,1.263,12.52,102.5904,5.911,7.231,42.01,0,110,13.24,6.68,280.0
"2016-03-15 01:38:30",1458848,12.56,318.7,6.445,1.29,12.43,102.5828,5.892,7.222,42.22,0,110,13.24,6.66,280.7
"2016-03-15 01:39:00",1458849,12.46,317.3,6.718,1.25,12.38,102.5789,5.882,7.186,42.55,0,110,13.25,6.65,279.3
"2016-03-15 01:39:30",1458850,12.94,319.1,6.811,1.18,12.69,102.5783,5.88,7.185,43.15,0,110,13.25,6.65,281.1
"2016-03-15 01:40:00",1458851,12.4,319.4,6.056,1.302,12.4,102.5786,5.881,7.189,43.57,0,110,13.25,6.65,281.4
"2016-03-15 01:40:30",1458852,12.34,319.1,6.626,1.24,12.36,102.5704,5.86,7.148,43.99,0,110,13.25,6.63,281.1
"2016-03-15 01:41:00",1458853,12.45,319.6,6.504,1.325,12.63,102.5583,5.829,7.163,44.45,0,110,13.25,6.60,281.6
"2016-03-15 01:41:30",1458854,12.82,320.4,6.2,1.213,12.25,102.5487,5.804,7.155,44.53,0,110,13.25,6.58,282.4
"2016-03-15 01:42:00",1458855,13.39,320.7,6.84,1.322,12.34,102.5453,5.796,7.114,44.47,0,110,13.25,6.57,282.7
"2016-03-15 01:42:30",1458856,13.37,322.5,6.423,1.363,12.72,102.5467,5.799,7.125,44.35,0,110,13.24,6.57,284.5
"2016-03-15 01:43:00",1458857,12.99,320.2,6.43,1.305,12.58,102.5438,5.792,7.135,44.76,0,110,13.25,6.56,282.2
"2016-03-15 01:43:30",1458858,14.65,319.8,6.828,1.324,12.84,102.5363,5.773,7.068,44.55,0,110,13.25,6.55,281.8
"2016-03-15 01:44:00",1458859,14.08,318.6,6.643,1.208,12.43,102.5289,5.754,7.09,44.77,0,110,13.25,6.53,280.6
"2016-03-15 01:44:30",1458860,13.27,318.2,6.589,1.267,12.31,102.5159,5.721,7.062,45.22,0,110,13.25,6.49,280.2
"2016-03-15 01:45:00",1458861,12.98,318.8,6.812,1.255,12.57,102.5137,5.715,7.053,45.47,0,110,13.25,6.49,280.8
"2016-03-15 01:45:30",1458862,13.45,320.7,6.434,1.307,12.81,102.5157,5.72,7.018,45.38,0,110,13.25,6.49,282.7
"2016-03-15 01:46:00",1458863,13.18,321.4,6.316,1.32,12.72,102.5117,5.71,7.014,45.22,0,110,13.25,6.48,283.4
"2016-03-15 01:46:30",1458864,13.43,323.2,6.381,1.19,12.77,102.5004,5.681,7.014,45.23,0,110,13.25,6.45,285.2
"2016-03-15 01:47:00",1458865,13.83,317.3,6.961,1.287,12.53,102.4939,5.665,7.002,44.74,0,110,13.25,6.44,279.3
"2016-03-15 01:47:30",1458866,12.71,317,7.227,1.311,12.12,102.4872,5.647,6.948,45.26,0,110,13.25,6.42,279.0
"2016-03-15 01:48:00",1458867,12.71,319.5,6.747,1.224,12.1,102.4838,5.639,6.96,45.91,0,110,13.25,6.41,281.5
"2016-03-15 01:48:30",1458868,12.28,318.9,7.419,1.329,12.5,102.4841,5.64,6.945,45.85,0,110,13.25,6.41,280.9
"2016-03-15 01:49:00",1458869,12.95,319.2,7.106,1.267,12.56,102.4835,5.638,6.938,46.22,0,110,13.24,6.41,281.2